User: anonymous   Login
Location: Mentone
(34.5413°N, 85.5351°W)
Time: 18:18:20
(UTC-05:00)
Language:

NOSS 2-2 (E) - Orbit

View from above orbital plane
View from above orbital plane
View from above satellite
View from above satellite

Ground track
Ground track

The orbit data is extracted from the following two-line orbital elements,

1 21809U 91076E   17141.87986717 0.00000060  00000-0  19932-4 0    07
2 21809  63.3480 166.4862 0742000  22.3771 337.6229 13.41340086    06
Epoch (UTC): 21 May 2017 21:07:00
Eccentricity: 0.0742000
inclination: 63.3480°
perigee height: 549 km
apogee height: 1659 km
right ascension of ascending node: 166.4862°
argument of perigee: 22.3771°
revolutions per day: 13.41340086
mean anomaly at epoch: 337.6229°
orbit number at epoch: 0

The dashed part of the orbit path shows where the satellite is in the earth's shadow,  

DLR